1296172832866,2.91922
1296172892866,2.94201
1296172952866,2.94570
1296173012866,2.93305
1296173072866,3.01162
1296173132866,2.97784
1296173192866,2.95741
1296173252866,2.96305
1296173312866,2.97445
1296173372866,2.92340
1296173432866,2.92952
1296173492866,2.92860
1296173552866,2.96547
1296173612866,2.95897
1296173672866,2.94377
1296173732866,2.96848
1296173792866,2.99308
1296173852866,2.96027
1296173912866,2.93046
1296173972866,2.97534
1296174032866,2.96347
1296174092866,2.93960
1296174152866,2.95987
1296174212866,2.96672
1296174272866,2.96085
1296174332866,2.94330
1296174392866,2.95705
1296174452866,2.94113
1296174512866,2.91392
1296174572866,2.95880
1296174632866,2.96834
1296174692866,2.96487
1296174752866,2.97250
1296174812866,2.93850
1296174872866,2.98923
1296174932866,2.95182
1296174992866,2.95681
1296175052866,2.97379
1296175112866,2.95723
1296175172866,2.93920
1296175232866,2.95664
1296175292866,2.94179
1296175352866,2.96614
1296175412866,2.97538
1296175472866,2.96221
1296175532866,2.98019
1296175592866,2.98703
1296175652866,3.00207
1296175712866,3.02810
1296175772866,3.05889
1296175832866,3.07191
1296175892866,3.11320
1296175952866,3.07260
1296176012866,3.08128
1296176072866,3.09321
1296176132866,3.14796
1296176192866,3.12036
1296176252866,3.29415
1296176312866,3.72992
1296176372866,3.90594
1296176432877,4.06983
1296176492877,4.01456
1296176552877,3.83538
1296176612877,3.84020
1296176672877,3.89161
1296176732877,4.01219
1296176792877,4.00716
1296176852877,3.98402
1296176912877,3.91498
1296176972877,3.78147
1296177032877,3.68165
1296177092877,3.61026
1296177152877,3.54667
1296177212877,3.43480
1296177272877,3.36781
1296177332877,3.35401
1296177392877,3.34914
1296177452877,3.35866
1296177512877,3.33693
1296177572877,3.32633
1296177632877,3.29295
1296177692877,3.27977
1296177752877,3.26570
1296177812877,3.25886
1296177872877,3.20969
1296177932877,3.22573
1296177992877,3.21781
1296178052877,3.21239
1296178112877,3.20101
1296178172877,3.17768
1296178232877,3.19419
1296178292877,3.17360
1296178352877,3.15163
1296178412877,3.17554
1296178472877,3.12994
1296178532877,3.14497
1296178592877,3.10623
1296178652877,3.11990
1296178712877,3.12447
1296178772877,3.11810
1296178832877,3.11219
1296178892877,3.12107
1296178952877,3.12728
1296179012877,3.10744
1296179072877,3.07061
1296179132877,3.08786
1296179192877,3.09175
1296179252877,3.09662
1296179312877,3.05694
1296179372877,3.04902
1296179432877,3.09830
1296179492877,3.06221
1296179552877,3.05213
1296179612877,3.05303
1296179672877,3.07979
1296179732877,3.10651
1296179792877,3.10486
1296179852877,3.07654
1296179912877,3.06512
1296179972877,3.04243
1296180032887,3.06081
1296180092887,3.04970
1296180152887,3.06093
1296180212887,3.01920
1296180272887,3.05124
1296180332887,2.97418
1296180392887,3.01998
1296180452887,3.01881
1296180512887,3.03268
1296180572887,3.05867
1296180632887,3.06210
1296180692887,3.06520
1296180752887,3.04821
1296180812887,3.06287
1296180872887,3.04016
1296180932887,3.01259
1296180992887,3.03993
1296181052887,3.00115
1296181112887,2.99833
1296181172887,2.99075
1296181232887,2.99546
1296181292887,3.00756
1296181352887,3.04227
1296181412887,3.02517
1296181472887,3.00891
1296181532887,3.04558
1296181592887,3.03680
1296181652887,2.99763
1296181712887,2.99727
1296181772887,3.02599
1296181832887,3.01727
1296181892887,3.00665
1296181952887,3.00255
1296182012887,3.01396
1296182072887,2.98720
1296182132887,2.98379
1296182192887,3.03052
1296182252887,3.00976
1296182312887,3.01804
1296182372887,3.02982
1296182432887,3.01354
1296182492887,2.99522
1296182552887,3.01546
1296182612887,3.01530
1296182672887,2.99389
1296182732887,3.00089
1296182792887,3.00504
1296182852887,3.00822
1296182912887,3.02538
1296182972887,2.97679
1296183032887,2.98732
1296183092887,2.97088
1296183152887,3.02982
1296183212887,2.98758
1296183272887,2.99224
1296183332887,2.99656
1296183392887,3.01965
1296183452887,3.00958
1296183512887,2.99506
1296183572887,3.00723
1296183632898,3.02447
1296183692898,3.00912
1296183752898,3.01437
1296183812898,2.99749
1296183872898,2.98730
1296183932898,2.97709
1296183992898,2.95835
1296184052898,2.98538
1296184112898,2.99668
1296184172898,2.99552
1296184232898,2.99677
1296184292898,2.97527
1296184352898,3.00748
1296184412898,2.99546
1296184472898,2.95946
1296184532898,2.96944
1296184592898,2.98883
1296184652898,2.98015
1296184712898,2.98944
1296184772898,2.96187
1296184832898,2.98977
1296184892898,2.98923
1296184952898,2.94190
1296185012898,2.96898
1296185072898,2.98087
1296185132898,2.97876
1296185192898,3.01510
1296185252898,2.98703
1296185312898,3.01906
1296185372898,2.98974
1296185432898,2.97006
1296185492898,2.96231
1296185552898,2.97835
1296185612898,3.02635
1296185672898,3.01702
1296185732898,3.05902
1296185792898,3.03117
1296185852898,3.02217
1296185912898,2.99122
1296185972898,2.99369
1296186032898,3.00617
1296186092898,3.01836
1296186152898,2.97862
1296186212898,2.98967
1296186272898,2.99210
1296186332898,3.00448
1296186392898,2.98816
1296186452898,2.96541
1296186512898,2.98209
1296186572898,2.99134
1296186632898,2.99272
1296186692898,3.01460
1296186752898,2.97922
1296186812898,3.01616
1296186872898,2.98303
1296186932898,2.96256
1296186992898,2.99561
1296187052898,2.94833
1296187112898,2.97688
1296187172898,2.99843
1296187232909,2.98530
1296187292909,2.98690
1296187352909,2.98888
1296187412909,3.00782
1296187472909,2.97371
1296187532909,2.99753
1296187592909,2.99011
1296187652909,3.00251
1296187712909,2.97144
1296187772909,2.99015
1296187832909,3.01640
1296187892909,3.01741
1296187952909,3.01130
1296188012909,2.99405
1296188072909,2.96288
1296188132909,3.00076
1296188192909,3.04208
1296188252909,3.03894
1296188312909,3.05513
1296188372909,3.07689
1296188432909,3.07501
1296188492909,3.10094
1296188552909,3.12224
1296188612909,3.13045
1296188672909,3.13900
1296188732909,3.12460
1296188792909,3.13239
1296188852909,3.15038
1296188912909,3.12539
1296188972909,3.09382
1296189032909,3.07277
1296189092909,3.07548
1296189152909,3.07121
1296189212909,3.00564
1296189272909,3.02966
1296189332909,3.01733
1296189392909,3.03202
1296189452909,3.04529
1296189512909,2.98413
1296189572909,3.00570
1296189632909,2.99228
1296189692909,2.96555
1296189752909,2.96687
1296189812909,2.95602
1296189872909,3.01260
1296189932909,2.96962
1296189992909,2.99825
1296190052909,2.97240
1296190112909,2.95233
1296190172909,2.99652
1296190232909,2.97868
1296190292909,2.98799
1296190352909,2.96882
1296190412909,2.99045
1296190472909,2.97853
1296190532909,2.97276
1296190592909,2.96628
1296190652909,2.99639
1296190712909,2.97324
1296190772909,2.99750
1296190832920,2.99682
1296190892920,2.97524
1296190952920,2.97452
1296191012920,2.96717
1296191072920,2.97492
1296191132920,2.97132
1296191192920,2.98513
1296191252920,2.95488
1296191312920,2.98058
1296191372920,2.95912
1296191432920,2.98010
1296191492920,2.96671
1296191552920,2.98464
1296191612920,2.95552
1296191672920,2.96284
1296191732920,2.95352
1296191792920,2.98215
1296191852920,2.95180
1296191912920,2.97094
1296191972920,2.97129
1296192032920,2.97938
1296192092920,2.99517
1296192152920,2.93217
1296192212920,2.94610
1296192272920,2.98762
1296192332920,2.97340
1296192392920,2.98320
1296192452920,2.97563
1296192512920,2.98636
1296192572920,2.97778
1296192632920,2.98072
1296192692920,2.99291
1296192752920,3.01388
1296192812920,2.94474
1296192872920,2.97408
1296192932920,2.95764
1296192992920,2.97374
1296193052920,2.97266
1296193112920,2.97329
1296193172920,2.93431
1296193232920,2.94744
1296193292920,2.95116
1296193352920,2.95033
1296193412920,2.98560
1296193472920,2.93106
1296193532920,2.94048
1296193592920,2.93466
1296193652920,3.00837
1296193712920,2.97388
1296193772920,2.95030
1296193832920,2.95651
1296193892920,2.97067
1296193952920,2.96657
1296194012920,2.95333
1296194072920,2.96069
1296194132920,2.97228
1296194192920,2.93562
1296194252920,2.96386
1296194312920,2.98294
1296194372920,2.94059
1296194432932,2.93988
1296194492932,2.97033
1296194552932,2.94116
1296194612932,2.99310
1296194672932,2.95152
1296194732932,2.97940
1296194792932,2.97320
1296194852932,2.97357
1296194912932,2.98823
1296194972932,2.94230
1296195032932,2.94179
1296195092932,2.92955
1296195152932,2.96954
1296195212932,2.98728
1296195272932,2.97936
1296195332932,2.94624
1296195392932,2.95300
1296195452932,2.95783
1296195512932,2.95590
1296195572932,2.93666
1296195632932,2.97334
1296195692932,2.95633
1296195752932,2.96629
1296195812932,2.95209
1296195872932,2.96486
1296195932932,2.95886
1296195992932,2.97470
1296196052932,2.94084
1296196112932,2.98156
1296196172932,2.97411
1296196232932,2.99504
1296196292932,2.97089
1296196352932,2.97493
1296196412932,2.96445
1296196472932,2.95242
1296196532932,2.96564
1296196592932,2.93977
1296196652932,2.96199
1296196712932,2.97430
1296196772932,2.94548
1296196832932,2.95854
1296196892932,2.94647
1296196952932,2.93594
1296197012932,2.95753
1296197072932,2.92637
1296197132932,2.93999
1296197192932,2.96049
1296197252932,2.98659
1296197312932,2.95620
1296197372932,2.96856
1296197432932,2.92735
1296197492932,2.96872
1296197552932,2.94938
1296197612932,2.96707
1296197672932,2.96970
1296197732932,2.96682
1296197792932,2.96915
1296197852932,2.94785
1296197912932,2.97214
1296197972932,2.95549
1296198032943,2.95300
1296198092943,2.94676
1296198152943,2.95414
1296198212943,2.94007
1296198272943,2.99957
1296198332943,2.95146
1296198392943,2.94083
1296198452943,2.96067
1296198512943,2.95624
1296198572943,2.92271
1296198632943,2.93510
1296198692943,2.94775
1296198752943,2.94569
1296198812943,2.94618
1296198872943,2.93122
1296198932943,3.04880
1296198992943,2.96650
1296199052943,2.96088
1296199112943,2.97906
1296199172943,2.97660
1296199232943,2.93473
1296199292943,2.96201
1296199352943,2.97348
1296199412943,2.93923
1296199472943,2.94239
1296199532943,2.95713
1296199592943,2.97201
1296199652943,2.94198
1296199712943,2.94234
1296199772943,2.95404
1296199832943,2.97587
1296199892943,2.95908
1296199952943,2.95853
1296200012943,2.95458
1296200072943,2.95310
1296200132943,2.89798
1296200192943,2.92461
1296200252943,2.95716
1296200312943,2.95595
1296200372943,2.97852
1296200432943,2.96840
1296200492943,2.95635
1296200552943,2.96702
1296200612943,2.96894
1296200672943,2.97221
1296200732943,2.97769
1296200792943,2.96735
1296200852943,2.97468
1296200912943,2.97037
1296200972943,2.96307
1296201032943,2.91319
1296201092943,2.98137
1296201152943,2.95983
1296201212943,2.99645
1296201272943,2.98787
1296201332943,2.92794
1296201392943,2.91086
1296201452943,2.96738
1296201512943,2.95212
1296201572943,2.96324
1296201632955,2.97517
1296201692955,2.99699
1296201752955,2.93220
1296201812955,2.90362
1296201872955,2.98685
1296201932955,2.99387
1296201992955,2.95989
1296202052955,2.95039
1296202112955,2.92454
1296202172955,2.91334
1296202232955,2.98804
1296202292955,2.97680
1296202352955,2.96461
1296202412955,2.98232
1296202472955,2.95398
1296202532955,2.94773
1296202592955,2.92733
1296202652955,2.91338
1296202712955,2.93793
1296202772955,2.93458
1296202832955,2.95868
1296202892955,2.97067
1296202952955,2.97456
1296203012955,2.96658
1296203072955,2.97349
1296203132955,2.95735
1296203192955,2.95512
1296203252955,3.01240
1296203312955,2.98398
1296203372955,2.95846
1296203432955,2.98064
1296203492955,2.98746
1296203552955,2.97223
1296203612955,2.98268
1296203672955,2.96061
1296203732955,2.97466
1296203792955,2.96818
1296203852955,2.96018
1296203912955,2.97878
1296203972955,2.96755
1296204032955,2.96807
1296204092955,2.97962
1296204152955,2.97321
1296204212955,2.98081
1296204272955,2.97235
1296204332955,2.97305
1296204392955,2.98216
1296204452955,2.94511
1296204512955,2.96639
1296204572955,2.92258
1296204632955,2.96743
1296204692955,2.96344
1296204752955,2.96600
1296204812955,2.94979
1296204872955,2.95944
1296204932955,2.98870
1296204992955,2.95783
1296205052955,2.97156
1296205112955,2.98716
1296205172955,2.98197
1296205232967,2.99481
1296205292967,2.97229
1296205352967,3.00929
1296205412967,2.98960
1296205472967,2.98260
1296205532967,2.98441
1296205592967,2.99253
1296205652967,2.96101
1296205712967,2.98188
1296205772967,2.96808
1296205832967,3.01331
1296205892967,3.00473
1296206432967,2.95151
1296206492967,2.96514
1296206552967,2.98293
1296206612967,2.97990
1296206672967,2.99856
1296206732967,2.99380
1296206792967,3.01203
1296206852967,3.01069
1296206912967,2.98050
1296206972967,3.01818
1296207032967,3.00359
1296207092967,2.98052
1296207152967,3.00543
1296207212967,2.99889
1296207272967,3.01952
1296207332967,3.00270
1296207392967,2.99130
1296207452967,3.00663
1296207512967,3.00071
1296207572967,2.98922
1296207632967,3.00185
1296207692967,3.02547
1296207752967,3.00818
1296207812967,3.02131
1296207872967,2.98812
1296207932967,2.98154
1296207992967,2.98267
1296208052967,3.00218
1296208112967,2.97411
1296208172967,2.99296
1296208232967,2.98046
1296208292967,2.98756
1296208352967,2.99446
1296208412967,3.00568
1296208472967,2.98278
1296208532967,2.95123
1296208592967,3.00505
1296208652967,2.99338
1296208712967,3.00128
1296208772967,3.00403
1296208832979,3.00009
1296208892979,2.95209
1296208952979,2.96147
1296209012979,2.96197
1296209072979,2.99947
1296209132979,2.98377
1296209192979,2.97729
1296209252979,2.99996
1296209312979,2.99339
1296209372979,3.00312
1296209432979,3.02075
1296209492979,3.03307
1296209552979,3.02510
1296209612979,3.04889
1296209672979,3.04785
1296209732979,3.06274
1296209792979,3.04638
1296209852979,3.04478
1296209912979,3.04113
1296209972979,3.04537
1296210032979,3.05422
1296210092979,3.08482
1296210152979,3.05894
1296210212979,3.08010
1296210272979,3.06427
1296210332979,3.04090
1296210392979,3.02692
1296210452979,3.01414
1296210512979,3.01656
1296210572979,2.98250
1296210632979,2.99961
1296210692979,2.99977
1296210752979,2.97560
1296210812979,2.96215
1296210872979,2.99451
1296210932979,2.97979
1296210992979,2.98635
1296211052979,3.00110
1296211112979,2.96924
1296211172979,2.96909
1296211232979,2.98387
1296211292979,2.97097
1296211352979,3.02778
1296211412979,2.96521
1296211472979,2.99761
1296211532979,2.99258
1296211592979,2.98184
1296211652979,2.98873
1296211712979,2.94980
1296211772979,2.99923
1296211832979,3.00934
1296211892979,2.95356
1296211952979,2.97008
1296212012979,2.97555
1296212072979,2.99766
1296212132979,2.99682
1296212192979,2.97046
1296212252979,2.99745
1296212312979,2.95556
1296212372979,2.95685
1296212432991,2.94755
1296212492991,2.96594
1296212552991,2.95957
1296212612991,2.96414
1296212672991,2.98424
1296212732991,2.96900
1296212792991,2.99797
1296212852991,2.95885
1296212912991,2.96573
1296212972991,2.95027
1296213032991,2.90628
1296213092991,2.95061
1296213152991,2.92741
1296213212991,2.96279
1296213272991,2.97592
1296213332991,2.95363
1296213392991,2.97435
1296213452991,2.97324
1296213512991,2.97095
1296213572991,2.97383
1296213632991,2.88798
1296213692991,2.95576
1296213752991,2.96704
1296213812991,2.98306
1296213872991,2.97887
1296213932991,2.99677
1296213992991,2.97533
1296214052991,2.97217
1296214112991,2.97890
1296214172991,2.98065
1296214232991,2.95993
1296214292991,2.95947
1296214352991,2.94620
1296214412991,2.98620
1296214472991,2.95608
1296214532991,2.95650
1296214592991,2.98818
1296214652991,2.96095
1296214712991,2.95505
1296214772991,2.97396
1296214832991,2.96740
1296214892991,2.96838
1296214952991,2.95432
1296215012991,2.95957
1296215072991,2.96735
1296215132991,2.98603
1296215192991,2.97196
1296215252991,2.96425
1296215312991,2.93342
1296215372991,2.97599
1296215432991,2.97628
1296215492991,2.96230
1296215552991,2.98141
1296215612991,2.97299
1296215672991,2.95874
1296215732991,2.94313
1296215792991,2.97784
1296215852991,2.96133
1296215912991,2.97369
1296215972991,2.95756
1296216033002,2.94689
1296216093002,2.95482
1296216153002,2.97582
1296216213002,2.97398
1296216273002,2.95656
1296216333002,2.96542
1296216393002,2.92233
1296216453002,2.94510
1296216513002,2.96819
1296216573002,2.97061
1296216633002,2.94828
1296216693002,2.94216
1296216753002,2.93432
1296216813002,2.96759
1296216873002,2.93658
1296216933002,2.95444
1296216993002,2.95788
1296217053002,2.94909
1296217113002,2.96331
1296217173002,2.94938
1296217233003,2.97802
1296217293003,2.95502
1296217353003,2.94099
1296217413002,2.94825
1296217473002,2.95141
1296217533002,2.97149
1296217593002,2.94330
1296217653002,2.96190
1296217713002,2.94557
1296217773002,2.95472
1296217833002,2.98054
1296217893002,2.97976
1296217953002,2.94944
1296218013002,2.95373
1296218073002,2.97078
1296218133002,2.98036
1296218193002,2.97085
1296218253002,2.97397
1296218313002,2.95631
1296218373002,2.94649
1296218433002,2.97879
1296218493002,3.06111
1296218553003,2.94903
1296218613003,2.94938
1296218673003,2.96486
1296218733002,2.95867
1296218793002,2.89672
1296218853002,2.95918
1296218913002,2.96256
1296218973002,2.98954
1296219033002,2.92737
1296219093002,2.96128
1296219153002,2.97457
1296219213002,2.92342
1296219273002,2.92820
1296219333002,2.89356
1296219393002,2.89438
1296219453002,2.92610
1296219513002,2.91359
1296219573002,2.93102
1296219633014,2.95926
1296219693014,2.93632
1296219753014,2.95907
1296219813014,2.93982
1296219873014,2.97111
1296219933014,2.98395
1296219993014,2.95689
1296220053014,2.88953
1296220113014,2.94603
1296220173014,2.97189
1296220233014,2.96029
1296220293014,2.93643
1296220353014,2.95643
1296220413014,2.94783
1296220473014,2.96096
1296220533014,2.93349
1296220593014,2.94370
1296220653014,2.93117
1296220713014,2.95075
1296220773014,2.93564
1296220833014,2.93517
1296220893014,2.98029
1296220953014,2.93421
1296221013014,2.95797
1296221073014,2.91622
1296221133014,2.94451
1296221193014,2.94558
1296221253014,2.94554
1296221313014,2.96007
1296221373014,2.95388
1296221433014,2.95111
1296221493014,2.94746
1296221553014,2.97917
1296221613014,2.94157
1296221673014,2.96264
1296221733014,2.97342
1296221793014,2.97247
1296221853014,2.93269
1296221913014,2.97681
1296221973014,2.97224
1296222033014,2.93988
1296222093014,2.96640
1296222153014,2.96713
1296222213014,2.97669
1296222273014,2.97525
1296222333014,2.97611
1296222393014,3.07151
1296222453014,2.96061
1296222513014,2.96225
1296222573014,2.97652
1296222633014,2.97810
1296222693014,2.97209
1296222753014,2.94467
1296222813014,2.95631
1296222873014,2.96472
1296222933014,2.97324
1296222993014,2.93017
1296223053014,2.92729
1296223113014,2.95118
1296223173014,2.97115
1296223233026,3.01175
1296223293026,2.96975
1296223353026,2.96637
1296223413026,2.94073
1296223473026,2.98985
1296223533026,2.95066
1296223593026,2.93837
1296223653026,2.94577
1296223713026,2.92226
1296223773026,2.96448
1296223833026,2.96527
1296223893026,2.95004
1296223953026,2.94632
1296224013026,2.97696
1296224073026,2.94891
1296224133026,2.97043
1296224193026,2.96785
1296224253026,2.96413
1296224313026,2.95428
1296224373026,2.96203
1296224433026,2.98253
1296224493026,2.95109
1296224553026,2.96322
1296224613026,2.93792
1296224673026,2.92696
1296224733026,2.95979
1296224793026,2.94728
1296224853026,2.95039
1296224913026,2.95642
1296224973026,2.98911
1296225033026,2.99148
1296225093026,2.96741
1296225153026,2.99554
1296225213026,2.97088
1296225273026,2.95223
1296225333026,2.98961
1296225393026,2.96876
1296225453026,2.97628
1296225513026,2.95567
1296225573026,2.96263
1296225633026,2.94921
1296225693026,2.95348
1296225753026,2.97078
1296225813026,2.95522
1296225873026,2.97310
1296225933026,2.98627
1296225993026,2.96642
1296226053026,2.98998
1296226113026,2.99466
1296226173026,2.99713
1296226233026,2.97566
1296226293026,2.96755
1296226353026,2.97594
1296226413026,2.96962
1296226473026,2.98448
1296226533026,3.00263
1296226593026,2.98639
1296226653026,2.97420
1296226713026,2.94660
1296226773026,2.99773
1296226833038,2.98673
1296226893038,2.94512
1296226953038,2.95403
1296227013038,2.95870
1296227073038,2.94643
1296227133038,2.96713
1296227193038,2.97129
1296227253038,2.94689
1296227313038,2.96081
1296227373038,2.97597
1296227433038,2.96242
1296227493038,2.96828
1296227553038,2.98756
1296227613038,2.95873
1296227673038,2.92291
1296227733038,2.96022
1296227793038,2.96926
1296227853038,2.93918
1296227913038,2.96415
1296227973038,2.91496
1296228033038,2.94720
1296228093038,2.92540
1296228153038,2.97183
1296228213038,2.92835
1296228273038,2.97334
1296228333038,2.96365
1296228393038,2.95860
1296228453038,2.97138
1296228513038,2.95154
1296228573038,2.96058
1296228633038,2.97598
1296228693038,2.95993
1296228753038,2.96888
1296228813038,2.96902
1296228873038,2.97181
1296228933038,2.95384
1296228993038,2.96649
1296229053038,2.94076
1296229113038,2.95825
1296229173038,2.97057
1296229233038,2.95305
1296229293038,2.97320
1296229353038,2.95021
1296229413038,2.93622
1296229473038,2.97765
1296229533038,2.95847
1296229593038,2.97982
1296229653038,2.96921
1296229713038,2.95795
1296229773038,2.97061
1296229833038,2.95222
1296229893038,2.96581
1296229953038,2.98981
1296230013038,2.99074
1296230073038,2.98504
1296230133038,2.95850
1296230193038,2.99282
1296230253038,2.98672
1296230313038,2.97222
1296230373038,2.95900
1296230433050,2.95920
1296230493050,2.97768
1296230553050,2.95602
1296230613050,2.93836
1296230673050,2.98948
1296230733050,2.99077
1296230793050,2.97691
1296230853050,2.98059
1296230913050,3.03471
1296230973050,2.96906
1296231033050,2.97313
1296231093050,2.96305
1296231153050,2.97679
1296231213050,2.98434
1296231273050,2.98257
1296231333050,2.96862
1296231393050,2.96871
1296231453050,2.99688
1296231513050,2.97401
1296231573050,2.97391
1296231633050,2.95511
1296231693050,2.96078
1296231753050,2.96871
1296231813050,2.94729
1296231873050,2.97805
1296231933050,2.95747
1296231993050,2.99792
1296232053050,2.98369
1296232113050,2.99192
1296232173050,2.98780
1296232233050,2.96958
1296232293050,2.96696
1296232353050,2.96526
1296232413050,2.95838
1296232473050,2.98221
1296232533050,2.95631
1296232593050,2.96493
1296232653050,2.97804
1296232713050,2.95806
1296232773050,2.95019
1296232833050,2.98508
1296232893050,2.95003
1296232953050,2.95855
1296233013050,2.98491
1296233073050,2.99275
1296233133050,2.94921
1296233193050,2.91617
1296233253050,2.96441
1296233313050,2.95007
1296233373050,2.98109
1296233433050,2.97496
1296233493050,2.94170
1296233553050,2.94613
1296233613050,2.97453
1296233673050,2.99730
1296233733050,2.95782
1296233793050,2.96900
1296233853050,2.97650
1296233913050,2.96321
1296233973050,2.96798
1296234033061,2.95844
1296234093061,2.96954
1296234153061,2.98132
1296234213061,2.95446
1296234273061,2.99953
1296234333061,2.96339
1296234393061,2.94165
1296234453061,2.93623
1296234513061,2.98211
1296234573061,2.96618
1296234633061,2.97411
1296234693061,2.97363
1296234753061,2.96864
1296234813061,2.96818
1296234873061,2.96788
1296234933061,2.96396
1296234993061,2.94677
1296235053061,2.96099
1296235113061,2.96563
1296235173061,2.96824
1296235233061,3.01135
1296235293061,2.97400
1296235353061,2.96624
1296235413061,2.96595
1296235473061,2.98828
1296235533061,2.99644
1296235593061,2.99210
1296235653061,2.95847
1296235713061,2.96992
1296235773061,2.94229
1296235833061,2.97977
1296235893061,2.98569
1296235953061,2.96944
1296236013061,2.98757
1296236073061,3.00145
1296236133061,2.98556
1296236193061,2.97439
1296236253061,2.94706
1296236313061,2.97477
1296236373061,2.98168
1296236433061,2.99684
1296236493061,2.99181
1296236553061,2.98337
1296236613061,2.98114
1296236673061,3.02272
1296236733061,3.00366
1296236793061,2.97781
1296236853061,2.96727
1296236913061,2.97554
1296236973061,2.98795
1296237033061,2.95670
1296237093061,3.00022
1296237153061,2.99099
1296237213061,2.97827
1296237273061,3.03787
1296237333061,3.01922
1296237393061,3.04968
1296237453061,3.06343
1296237513061,3.01613
1296237573061,3.02564
1296237633073,3.00186
1296237693073,3.00180
1296237753073,2.99491
1296237813073,2.95608
1296237873073,2.98079
1296237933073,2.95010
1296237993073,2.97789
1296238053073,2.96651
1296238113073,3.01515
1296238173073,2.98363
1296238233073,2.97820
1296238293073,3.00248
1296238353073,3.00687
1296238413073,2.98039
1296238473073,3.00791
1296238533073,2.99683
1296238593073,2.98797
1296238653073,2.96192